User: anonymous   Login
Location: Plum
(40.5000°N, 79.7500°W)
Time: 15:22:03
(UTC-05:00)
Language:

Cosmos 1825 - Orbit

View from above orbital plane
View from above orbital plane
View from above satellite
View from above satellite

Ground track
Ground track

The orbit data is extracted from the following two-line orbital elements,

1 17566U 87024A   18022.16714012  .00000618  00000-0  27900-4 0  9998
2 17566  82.5039  73.0096 0004513 151.5945 208.5536 15.19087724687084
Epoch (UTC): 22 January 2018 04:00:40
Eccentricity: 0.0004513
inclination: 82.5039°
perigee height: 505 km
apogee height: 512 km
right ascension of ascending node: 73.0096°
argument of perigee: 151.5945°
revolutions per day: 15.19087724
mean anomaly at epoch: 208.5536°
orbit number at epoch: 68708

The dashed part of the orbit path shows where the satellite is in the earth's shadow,  

DLR